[[{"header":{"parameterUnit":"m.s-1","parameterCategory":1,"la1":30.2991,"la2":30.254,"lo1":-89.0895,"lo2":-89.0444,"dy":0.0017,"dx":0.0017,"nx":28,"ny":28,"refTime":"2023-04-26T21:00:00:Z","depth":0,"parameterNumber":2,"parameterNumberName":"U-component_of_WINDS"},"data":[0,0,0,0,0,0,0,0,0,0,0,0,0,0,0,0,0,0,0,0,0,0,0,0,0,0,0,0,0,0,0,0,0,0,0,0,0,0,0,0,0,0,0,0,0,0,0,0,0,0,0,0,0,0,0,0,0,0,-3.5548,-3.5548,0,-3.5572,-3.5572,-3.5572,-3.5492,-3.549,-3.5488,-3.5485,-3.551,-3.5512,-3.5515,0,0,0,0,0,0,0,0,0,0,0,0,0,-3.5434,-3.5436,-3.5548,-3.5548,-3.5549,-3.5572,-3.5572,-3.5572,-3.5493,-3.549,-3.5487,-3.5484,-3.5509,-3.5512,-3.5516,0,0,0,0,0,0,0,0,0,0,0,0,0,-3.5473,-3.5437,-3.5548,-3.5512,-3.5509,-3.5572,-3.5572,-3.5572,-3.5494,-3.549,-3.5486,-3.5483,-3.5508,-3.5512,-3.5516,-3.5615,0,0,-3.5529,-3.5531,0,0,0,0,0,0,0,0,-3.5471,-3.5478,-3.5517,-3.5514,-3.5511,-3.5525,-3.5541,-3.5587,-3.5494,-3.5499,-3.5485,-3.5481,-3.5518,-3.5521,-3.5533,-3.5616,-3.5617,-3.553,-3.5532,-3.5534,-3.5535,0,0,0,0,0,0,0,-3.5469,-3.5476,-3.5557,-3.5517,-3.5514,-3.5494,-3.5496,-3.5549,-3.5529,-3.5499,-3.5493,-3.5497,-3.5516,-3.553,-3.5533,-3.5618,-3.553,-3.5533,-3.5536,-3.5538,-3.5783,-3.5786,0,0,0,0,0,0,-3.5471,-3.5474,-3.5557,-3.5558,-3.5482,-3.5499,-3.5501,-3.5524,-3.5528,-3.5525,-3.55,-3.5493,-3.5524,-3.5528,-3.5534,-3.5649,-3.5534,-3.5538,-3.5541,-3.5779,-3.5784,-3.5788,0,0,0,0,0,0,-3.5468,-3.5479,-3.5556,-3.5515,-3.5523,-3.5505,-3.5532,-3.5527,-3.554,-3.5529,-3.5525,-3.5518,-3.5521,-3.5528,-3.5595,-3.5649,-3.554,-3.5544,-3.5774,-3.578,-3.5786,-3.5881,0,0,0,0,0,0,-3.5465,-3.5478,-3.5515,-3.5516,-3.5525,-3.5617,-3.5535,-3.553,-3.5548,-3.554,-3.5544,-3.5542,-3.5519,-3.5589,-3.56,-3.5653,-3.5547,-3.5769,-3.5777,-3.5784,-3.5873,-3.5889,-3.5904,0,0,0,0,0,-3.5462,-3.5541,-3.5518,-3.5528,-3.5572,-3.562,-3.5625,-3.5597,-3.5553,-3.559,-3.5583,-3.5542,-3.5642,-3.5597,-3.5608,-3.5663,-3.5766,-3.5775,-3.5783,-3.5866,-3.5886,-3.5903,0,0,0,0,0,0,-3.5547,-3.5541,-3.5514,-3.5597,-3.561,-3.5606,-3.5652,-3.562,-3.5645,-3.5636,-3.56,-3.5602,-3.5676,-3.5677,-3.5627,-3.5759,-3.5696,-3.5708,-3.5755,-3.5774,-3.5789,-3.5787,-3.5551,0,0,0,0,0,-3.5576,-3.5615,-3.5608,-3.5681,-3.5689,-3.567,-3.569,-3.5668,-3.5679,-3.5684,-3.5682,-3.5695,-3.5729,-3.5752,-3.5783,-3.5874,-3.5873,-3.5917,-3.5933,-3.5945,-3.5955,-3.6002,-3.6021,-3.5817,-3.5817,-3.5816,0,0,-3.5634,-3.5636,-3.5663,-3.5698,-3.5705,-3.5747,-3.5675,-3.5722,-3.5753,-3.5691,-3.5754,-3.5754,-3.5766,-3.5845,-3.588,-3.5848,-3.6012,-3.5957,-3.5967,-3.5969,-3.6013,-3.6032,-3.605,-3.5823,-3.5822,-3.5821,0,0,-3.5762,-3.5769,-3.583,-3.5839,-3.5851,-3.5838,-3.5853,-3.5856,-3.5852,-3.5916,-3.587,-3.5907,-3.5967,-3.5977,-3.5991,-3.6125,-3.6088,-3.6137,-3.6215,-3.6262,-3.6278,-3.6292,-3.6338,-3.6356,-3.6147,-3.6147,-3.6147,0,-3.5834,-3.5895,-3.5865,-3.5916,-3.5932,-3.588,-3.5942,-3.5952,-3.5974,-3.5987,-3.5951,-3.6026,-3.6031,-3.6111,-3.6144,-3.6157,-3.6173,-3.6134,-3.6278,-3.6292,-3.6304,-3.6348,-3.6366,-3.6153,-3.6152,-3.6151,-3.6151,0,-3.5981,-3.6025,-3.6073,-3.6095,-3.6118,-3.6174,-3.6153,-3.618,-3.6156,-3.6147,-3.6213,-3.6217,-3.6248,-3.6266,-3.6243,-3.6344,-3.6323,-3.6284,-3.6219,-3.633,-3.6371,-3.6387,-3.6161,-3.6159,-3.6157,-3.6156,0,0,-3.6161,-3.6168,-3.6186,-3.6195,-3.6206,-3.6239,-3.6293,-3.6323,-3.6346,-3.6364,-3.6408,-3.6461,-3.6425,-3.644,-3.6419,-3.646,-3.6565,-3.6415,-3.6415,-3.6441,-3.6674,-3.6702,-3.6722,-3.6542,-3.6545,-3.6547,-3.6673,0,-3.6285,-3.6377,-3.6353,-3.6445,-3.6484,-3.6436,-3.6483,-3.6495,-3.6489,-3.6522,-3.6515,-3.6552,-3.6502,-3.6511,-3.655,-3.6544,-3.6611,-3.6535,-3.6581,-3.6583,-3.6577,-3.6744,-3.6773,-3.6891,-3.6689,-3.6691,-3.6693,0,-3.6442,-3.6466,-3.6561,-3.6566,-3.6581,-3.6624,-3.665,-3.6682,-3.6695,-3.6688,-3.6706,-3.6677,-3.673,-3.6668,-3.6741,-3.669,-3.6708,-3.6708,-3.6712,-3.6713,-3.6643,-3.6747,-3.6928,-3.6945,-3.6718,-3.6716,-3.6714,0,-3.6561,-3.6617,-3.6681,-3.6691,-3.6699,-3.673,-3.6734,-3.6744,-3.6764,-3.6787,-3.68,-3.683,-3.6845,-3.6869,-3.6849,-3.6806,-3.6925,-3.6861,-3.6919,-3.692,-3.6944,-3.6942,-3.7128,-3.696,-3.696,-3.696,-3.6959,0,-3.6701,-3.676,-3.6735,-3.6774,-3.684,-3.6813,-3.6879,-3.6878,-3.6887,-3.6925,-3.6887,-3.6924,-3.6896,-3.6931,-3.6916,-3.6978,-3.6986,-3.6981,-3.6975,-3.6983,-3.6983,-3.6992,-3.6982,-3.6964,-3.6963,-3.6963,-3.6962,0,-3.6843,-3.6829,-3.6895,-3.6897,-3.6899,-3.6948,-3.6949,-3.6986,-3.6978,-3.7027,-3.7037,-3.7024,-3.7063,-3.7046,-3.7088,-3.7077,-3.7156,-3.7142,-3.7152,-3.7147,-3.7205,-3.7199,-3.7401,-3.7426,-3.7245,-3.7247,-3.7248,0,-3.6932,-3.6977,-3.6984,-3.7007,-3.7014,-3.7052,-3.7072,-3.7048,-3.7071,-3.709,-3.7124,-3.716,-3.7186,-3.7251,-3.7246,-3.7277,-3.7261,-3.733,-3.7265,-3.7271,-3.7259,-3.7256,-3.726,-3.7342,-3.7344,-3.7346,-3.7347,0,-3.709,-3.7081,-3.7112,-3.7141,-3.7166,-3.7188,-3.7206,-3.7227,-3.7204,-3.7232,-3.7271,-3.7292,-3.7335,-3.737,-3.7398,-3.7403,-3.7371,-3.7368,-3.7383,-3.7389,-3.7392,-3.7389,-3.7184,-3.7363,-3.7361,-3.736,-3.7359,-3.7358,-3.7207,-3.7244,-3.7255,-3.7291,-3.7303,-3.7321,-3.7355,-3.7352,-3.7384,-3.7416,-3.7401,-3.7447,-3.7459,-3.7493,-3.7503,-3.7538,-3.7511,-3.7533,-3.7538,-3.7543,-3.755,-3.7389,-3.7544,-3.7543,-3.7543,-3.7542,-3.7542,0,-3.7361,-3.7366,-3.74,-3.7427,-3.7455,-3.7424,-3.7443,-3.7469,-3.7509,-3.7524,-3.7552,-3.7597,-3.7632,-3.763,-3.7663,-3.7691,-3.7677,-3.77,-3.7696,-3.7698,-3.7573,-3.7556,-3.7711,-3.7711,-3.7711,-3.7711,-3.7711,-3.7711,-3.7444,-3.7506,-3.7499,-3.7566,-3.757,-3.7615,-3.7628,-3.7645,-3.7656,-3.7709,-3.7737,-3.7737,-3.7745,-3.7777,-3.7808,-3.7807,-3.7819,-3.7847,-3.784,-3.7723,-3.7707,-3.7691,-3.7674,-3.7851,-3.7851,-3.7961,-3.7962,-3.7963]},{"header":{"parameterUnit":"m.s-1","parameterCategory":1,"la1":30.2991,"la2":30.254,"lo1":-89.0895,"lo2":-89.0444,"dy":0.0017,"dx":0.0017,"nx":28,"ny":28,"refTime":"2023-04-26T21:00:00:Z","depth":0,"parameterNumber":3,"parameterNumberName":"V-component_of_WINDS"},"data":[0,0,0,0,0,0,0,0,0,0,0,0,0,0,0,0,0,0,0,0,0,0,0,0,0,0,0,0,0,0,0,0,0,0,0,0,0,0,0,0,0,0,0,0,0,0,0,0,0,0,0,0,0,0,0,0,0,0,0.8802,0.8803,0,0.8883,0.8884,0.8885,0.8905,0.8904,0.8904,0.8903,0.8983,0.8985,0.8988,0,0,0,0,0,0,0,0,0,0,0,0,0,0.8664,0.8666,0.8802,0.8803,0.8804,0.8883,0.8884,0.8885,0.8905,0.8904,0.8904,0.8903,0.8982,0.8985,0.8988,0,0,0,0,0,0,0,0,0,0,0,0,0,0.8732,0.8667,0.8802,0.8824,0.8826,0.8882,0.8884,0.8885,0.8905,0.8904,0.8903,0.8903,0.8981,0.8985,0.8989,0.9028,0,0,0.9,0.9002,0,0,0,0,0,0,0,0,0.8728,0.8737,0.8819,0.8822,0.8825,0.8883,0.8864,0.8933,0.8905,0.8875,0.8903,0.8902,0.895,0.8956,0.8973,0.9032,0.9035,0.9001,0.9003,0.9005,0.9006,0,0,0,0,0,0,0,0.8723,0.8734,0.8834,0.8821,0.8824,0.8829,0.8838,0.8877,0.8916,0.8878,0.8879,0.8889,0.8951,0.8969,0.8975,0.9036,0.9001,0.9004,0.9007,0.9008,0.9133,0.9134,0,0,0,0,0,0,0.8715,0.873,0.8831,0.8836,0.8774,0.8832,0.8842,0.8865,0.8915,0.8922,0.8889,0.8889,0.8963,0.8971,0.8978,0.9029,0.9005,0.9008,0.9011,0.9132,0.9133,0.9134,0,0,0,0,0,0,0.8712,0.8724,0.8828,0.8784,0.8797,0.8835,0.8861,0.8867,0.8885,0.8924,0.8931,0.8901,0.8963,0.8972,0.9016,0.9032,0.901,0.9014,0.9131,0.9132,0.9134,0.9129,0,0,0,0,0,0,0.8708,0.8723,0.8738,0.8784,0.8799,0.8865,0.8862,0.8869,0.8892,0.8893,0.8937,0.8943,0.8963,0.901,0.902,0.9037,0.9017,0.9129,0.9131,0.9133,0.9128,0.913,0.9132,0,0,0,0,0,0.8703,0.8733,0.8739,0.8751,0.882,0.8866,0.8875,0.8898,0.8893,0.8909,0.8935,0.8942,0.9028,0.9014,0.9025,0.9044,0.9129,0.9131,0.9133,0.9127,0.913,0.9132,0,0,0,0,0,0,0.8687,0.8739,0.8747,0.8792,0.8825,0.8869,0.889,0.89,0.8933,0.8933,0.8959,0.8969,0.9011,0.9031,0.9015,0.9085,0.9078,0.9083,0.907,0.9073,0.9075,0.9069,0.902,0,0,0,0,0,0.8689,0.8723,0.8766,0.8802,0.8818,0.8851,0.8872,0.8888,0.8922,0.8935,0.8964,0.8996,0.9031,0.9053,0.9087,0.9131,0.9142,0.9149,0.9151,0.9153,0.9157,0.9183,0.9187,0.9141,0.9141,0.9141,0,0,0.8693,0.8726,0.8745,0.88,0.8827,0.8861,0.8863,0.8898,0.8924,0.894,0.8984,0.9006,0.9044,0.9088,0.9109,0.9107,0.9172,0.9156,0.9157,0.916,0.9186,0.919,0.9194,0.9143,0.9143,0.9142,0,0,0.8718,0.8746,0.878,0.8807,0.8849,0.8871,0.8879,0.8923,0.8939,0.8983,0.8996,0.9027,0.9086,0.9113,0.9134,0.9171,0.9179,0.9181,0.9192,0.9218,0.9221,0.9225,0.9239,0.9243,0.9185,0.9185,0.9185,0,0.8717,0.877,0.8796,0.8832,0.8856,0.8874,0.8908,0.8933,0.8983,0.8999,0.8996,0.9072,0.9098,0.915,0.9159,0.9176,0.9186,0.9177,0.9219,0.9222,0.9226,0.924,0.9245,0.9185,0.9185,0.9185,0.9185,0,0.8768,0.8805,0.8827,0.8877,0.8903,0.8938,0.8968,0.8992,0.9005,0.9028,0.9073,0.9106,0.9148,0.9161,0.9173,0.9215,0.9213,0.9214,0.9207,0.923,0.9244,0.9249,0.9185,0.9185,0.9185,0.9185,0,0,0.8784,0.8849,0.8857,0.888,0.8928,0.8957,0.8993,0.9035,0.9055,0.9089,0.912,0.9171,0.9173,0.9197,0.9213,0.9235,0.9264,0.9234,0.9235,0.9239,0.9313,0.9312,0.9318,0.927,0.9271,0.9272,0.931,0,0.8816,0.8882,0.8907,0.8961,0.8995,0.9014,0.9045,0.9078,0.91,0.9132,0.9156,0.9192,0.9192,0.9207,0.9229,0.9255,0.9279,0.9253,0.9299,0.93,0.9289,0.9325,0.9324,0.9358,0.9315,0.9316,0.9317,0,0.8862,0.8898,0.8956,0.9001,0.9017,0.9045,0.9086,0.9117,0.9154,0.9169,0.9197,0.9212,0.925,0.9242,0.9295,0.9277,0.9297,0.9313,0.9315,0.932,0.931,0.9332,0.937,0.9375,0.9325,0.9325,0.9324,0,0.8869,0.8932,0.8976,0.8995,0.9049,0.9068,0.9091,0.9128,0.9152,0.9188,0.9204,0.9244,0.9265,0.9295,0.9321,0.9312,0.9372,0.9365,0.9386,0.9385,0.9397,0.9396,0.944,0.9409,0.9409,0.9409,0.9409,0,0.8902,0.8937,0.898,0.9007,0.9047,0.9075,0.9113,0.9137,0.917,0.9202,0.9219,0.9248,0.928,0.9313,0.9333,0.9375,0.9384,0.9397,0.9402,0.9396,0.9394,0.941,0.9408,0.9411,0.941,0.941,0.941,0,0.8917,0.8947,0.8996,0.9043,0.9056,0.9084,0.9124,0.915,0.9174,0.9214,0.9225,0.9261,0.9301,0.933,0.938,0.9394,0.9439,0.9444,0.9427,0.943,0.9449,0.9447,0.9504,0.9513,0.9476,0.9476,0.9476,0,0.8937,0.8964,0.9015,0.9038,0.9062,0.9098,0.9124,0.9152,0.9178,0.9224,0.9245,0.9287,0.9322,0.9385,0.9416,0.9455,0.9461,0.9478,0.9467,0.946,0.9462,0.9461,0.9464,0.948,0.948,0.9481,0.9481,0,0.8968,0.8982,0.9019,0.9061,0.9092,0.9126,0.916,0.9178,0.9212,0.924,0.9283,0.931,0.9363,0.9404,0.9447,0.947,0.9482,0.9484,0.9491,0.9485,0.9475,0.9482,0.9433,0.9483,0.9483,0.9482,0.9482,0.9482,0.8987,0.9013,0.9053,0.9094,0.9123,0.9155,0.9183,0.9211,0.9247,0.9293,0.9308,0.9352,0.939,0.9449,0.9472,0.9507,0.9506,0.9515,0.9518,0.952,0.9521,0.9469,0.9515,0.9515,0.9515,0.9515,0.9515,0,0.902,0.9048,0.9085,0.9133,0.9165,0.9174,0.9213,0.9239,0.9278,0.9313,0.9348,0.9396,0.9437,0.9471,0.9513,0.9535,0.9541,0.9545,0.9544,0.9549,0.9519,0.9509,0.9539,0.9539,0.9539,0.9539,0.9539,0.9539,0.9042,0.9087,0.9106,0.9166,0.9192,0.9237,0.9258,0.9288,0.9316,0.9371,0.9405,0.9428,0.9463,0.9508,0.9545,0.9555,0.9569,0.9572,0.9582,0.9554,0.9551,0.9548,0.9539,0.9575,0.9575,0.961,0.961,0.9611]}]]